Wind_Speed
12 9 9 8 2 8 15 14 10 8 5 10 11 12 7 4 5 5 7 8 9 10 12 12 13 14 14 13 8 8 7 5 3 3 3 5 4 6 6 6 5 6 7 9 9 11 12 14 15
12 11 9 9 5 13 14 14 10 10 9 10 9 8 8 2 7 6 6 6 7 9 11 12 13 13 13 12 8 6 5 4 2 2 3 5 5 7 6 6 7 7 8 10 11 12 15 15 16
14 12 7 6 8 12 10 7 9 10 14 13 5 7 7 3 7 7 5 5 6 9 10 11 12 11 11 11 9 6 4 3 3 3 4 5 6 8 8 8 9 10 10 11 13 14 16 16 17
15 10 10 11 13 10 14 7 9 8 6 12 12 5 10 10 9 8 7 5 6 8 10 10 10 11 11 9 9 7 5 5 5 5 5 7 8 10 10 10 11 11 12 13 14 16 17 18 19
15 12 14 16 13 11 11 13 11 14 10 14 16 7 6 11 11 11 9 7 6 7 9 9 9 9 9 9 8 8 7 6 6 7 7 9 9 11 11 12 13 13 13 15 16 17 19 20 21
16 12 17 17 15 10 11 12 12 11 10 9 9 14 10 14 12 11 11 9 7 7 9 9 9 10 9 8 8 8 7 7 8 7 8 9 11 12 13 14 14 15 16 17 18 18 19 20 21
20 17 20 20 18 15 12 13 9 11 11 9 16 12 9 18 14 14 12 11 10 8 9 10 11 11 11 10 9 8 9 8 9 9 10 9 9 10 11 12 13 14 16 16 17 18 17 18 19
20 20 24 21 20 18 12 12 10 12 12 17 18 8 9 18 15 15 14 13 11 11 11 12 13 13 13 13 12 11 10 11 12 12 12 13 13 12 13 13 13 13 15 16 17 16 18 19 21
27 23 26 23 20 17 13 9 10 18 18 17 19 20 17 17 17 15 13 12 14 15 13 15 15 16 16 16 15 15 14 13 15 15 15 16 16 16 16 16 16 16 17 18 19 20 21 22 23
27 27 29 20 19 18 14 12 14 16 15 14 14 14 18 20 17 15 14 15 16 17 18 18 17 17 17 18 19 18 18 17 16 17 17 18 18 18 18 18 19 19 19 19 20 20 20 21 22
28 34 23 23 22 19 19 17 14 17 22 15 12 14 13 19 19 17 17 17 17 17 17 18 18 19 19 20 21 21 20 19 19 18 18 19 20 19 18 19 19 20 21 21 22 21 22 23 24
33 28 31 23 23 22 25 22 22 19 22 20 22 21 23 26 23 21 20 19 18 19 19 18 19 19 20 21 19 20 19 18 20 20 19 20 20 21 21 21 22 22 24 24 25 25 26 27 28
32 31 27 28 24 23 25 29 30 27 22 20 23 26 27 27 28 28 25 22 20 19 19 20 19 20 20 18 18 18 19 19 20 20 19 19 21 22 23 24 25 26 27 28 28 29 31 32 33
28 31 31 25 26 26 25 30 27 27 20 20 21 25 31 32 30 29 28 25 24 24 23 20 19 18 17 20 20 20 21 21 20 20 20 19 20 22 24 25 27 28 29 30 31 32 34 35 36
33 29 26 34 27 25 23 31 32 28 18 23 23 23 31 35 33 33 30 29 28 28 24 21 19 19 20 22 23 23 23 22 21 21 21 21 21 22 24 25 27 29 30 30 32 32 34 34 35
37 31 35 28 28 27 23 34 19 13 17 17 15 20 26 29 35 36 33 32 29 27 23 21 19 18 20 23 24 24 23 22 20 21 22 22 22 23 24 25 27 29 30 32 32 33 34 35 36
28 37 39 27 26 26 25 29 19 20 23 19 15 14 17 19 22 25 25 24 22 20 19 18 19 20 20 19 21 21 20 21 20 21 23 23 23 25 26 28 30 32 33 34 34 35 35 36 37
31 39 27 32 27 27 27 30 25 20 18 17 14 14 20 16 15 14 16 16 15 15 16 18 18 16 12 11 12 14 16 18 19 21 23 23 25 27 28 31 32 33 33 34 34 36 36 38 40
32 27 32 23 23 29 30 29 28 24 23 21 17 17 20 21 15 14 14 15 15 15 15 14 11 9 8 9 10 10 12 14 17 20 23 23 26 27 28 30 30 31 32 34 36 38 40 42 44
37 27 30 24 18 20 21 23 24 24 26 23 20 20 21 22 18 16 16 16 15 14 12 10 9 7 7 8 9 11 14 17 20 23 23 24 25 25 26 28 29 31 33 36 39 42 44 45 45
34 38 29 26 19 19 17 26 29 29 26 25 26 21 24 22 20 18 19 17 15 13 12 11 9 9 8 8 10 13 16 18 19 20 20 21 23 25 27 29 32 35 38 40 42 44 45 46 44
42 30 26 23 13 14 14 9 7 15 27 28 27 29 30 26 24 21 19 17 15 14 13 11 10 9 8 9 11 14 15 16 17 18 20 22 24 27 30 34 36 38 40 41 41 43 42 42 42
32 25 25 19 18 12 13 9 17 13 19 18 21 23 28 26 27 22 20 17 16 16 15 13 11 8 8 10 13 15 17 17 18 20 23 26 28 32 34 36 36 37 39 40 41 39 38 39 41
29 31 20 14 11 9 20 18 15 17 14 15 21 24 26 28 27 23 20 18 18 18 15 13 11 10 10 12 16 17 16 17 19 22 25 29 33 35 33 35 37 38 38 38 37 37 38 40 41
28 36 8 5 6 7 9 18 13 5 12 7 7 18 22 24 25 22 21 20 20 18 16 14 13 12 13 15 19 19 18 20 23 27 29 33 35 34 36 37 38 38 37 37 37 38 39 40 41
34 30 12 7 8 12 10 9 9 17 18 12 14 10 19 22 23 21 21 22 21 19 18 16 14 14 16 20 22 21 22 25 28 31 34 38 37 37 39 39 38 37 36 37 39 40 41 43 44
34 34 4 3 3 11 11 11 6 9 6 10 13 17 21 22 21 21 23 24 22 21 19 17 17 17 19 24 25 25 27 30 33 36 39 41 40 41 41 40 38 39 39 40 41 42 43 45 46
32 27 13 5 8 5 9 10 8 10 3 5 14 17 21 23 23 23 25 24 23 21 19 19 19 21 23 26 27 28 31 34 37 40 43 44 43 43 42 40 39 39 39 40 41 43 45 47 49
33 23 11 7 1 3 6 7 12 5 2 4 10 14 20 26 25 23 24 25 23 21 21 21 21 23 26 29 30 31 34 37 40 43 45 45 44 43 41 39 39 39 40 41 44 46 47 50 52
31 20 18 14 5 4 5 7 15 2 3 2 4 9 18 24 24 22 23 23 21 22 21 21 23 26 29 32 32 34 36 39 43 45 45 45 44 42 40 40 40 41 43 46 48 48 50 52 54
Wind_Direction
282 301 323 337 287 234 236 230 228 232 226 222 221 219 239 263 306 306 328 328 339 348 353 353 350 353 358 358 347 350 356 336 297 267 237 241 220 220 216 211 220 223 235 245 250 261 267 268 270
269 289 310 323 261 250 240 223 238 231 248 227 227 226 237 265 257 261 293 319 333 346 354 358 357 358 358 2 357 347 350 348 314 262 244 238 229 227 224 227 231 237 237 252 255 260 264 269 273
260 276 297 264 265 252 277 207 228 252 239 242 251 248 226 239 236 256 279 299 320 337 346 354 359 358 2 5 6 348 333 325 303 272 248 236 238 238 233 236 238 245 247 255 263 263 265 270 275
255 280 280 253 256 260 254 253 255 266 250 238 240 245 262 241 242 241 256 271 307 330 338 348 352 355 5 6 11 6 342 319 303 287 264 251 243 251 250 249 252 253 257 260 262 266 269 271 273
252 254 254 256 256 259 257 248 263 236 236 230 235 220 256 236 241 242 245 254 288 318 328 335 338 345 353 357 10 12 7 350 318 297 285 270 268 264 267 267 267 268 268 267 267 270 274 275 275
241 245 247 249 251 249 269 260 251 244 261 249 243 241 251 243 237 234 240 245 265 302 311 317 323 329 336 347 355 359 2 355 342 330 313 297 284 279 274 272 274 275 274 272 272 271 274 279 281
236 235 249 251 258 254 268 257 243 241 253 258 233 239 260 249 237 239 247 245 255 287 295 305 313 315 322 329 336 338 336 337 334 327 319 310 300 288 279 276 276 276 274 274 275 277 277 277 280
231 240 248 246 249 256 256 261 249 240 237 238 228 236 225 245 239 241 248 250 252 273 286 297 300 302 312 317 319 319 321 320 318 316 315 310 302 296 289 283 279 275 277 277 276 282 284 287 287
233 234 240 240 241 246 254 256 253 243 238 241 230 232 251 242 243 245 249 250 260 272 285 294 293 298 305 309 311 311 312 312 312 310 310 308 306 302 298 296 291 288 286 289 293 292 294 295 293
227 231 235 238 244 242 249 261 266 258 243 256 256 263 261 262 251 247 252 258 266 276 285 286 285 288 298 302 303 305 306 304 305 303 307 307 307 308 306 302 298 294 295 296 299 300 303 304 307
232 233 237 237 244 241 246 254 272 265 244 247 260 246 267 259 252 252 255 263 276 282 285 284 283 286 294 302 301 303 302 302 303 304 303 303 306 306 305 301 300 299 301 303 303 306 308 309 311
231 237 235 237 245 247 252 259 261 261 263 259 254 252 253 253 256 252 254 262 274 282 282 281 284 285 292 296 298 297 296 300 304 304 295 294 297 302 302 304 305 306 308 308 310 311 309 308 306
229 235 240 237 237 251 252 254 258 255 263 263 265 259 253 252 251 253 256 261 270 276 279 276 278 283 286 290 293 291 292 296 304 302 297 293 293 297 300 301 301 302 302 303 304 302 301 300 300
229 232 236 243 240 248 257 257 260 255 258 270 272 265 253 254 252 253 254 258 265 271 273 274 277 278 279 285 285 285 287 294 301 300 299 300 298 296 296 297 297 296 297 298 298 299 301 302 299
226 231 241 233 236 244 260 260 256 260 269 274 270 261 259 254 256 256 256 260 265 269 270 268 271 274 278 279 279 280 284 290 295 294 298 299 297 295 295 294 295 296 297 298 299 301 300 298 297
224 233 235 231 237 242 240 255 254 252 262 258 278 258 253 254 256 258 258 261 266 265 258 261 269 273 275 275 274 275 277 280 285 290 293 294 293 293 294 295 295 295 297 297 298 297 296 296 297
213 223 227 236 228 234 234 254 262 255 248 260 267 260 259 253 254 256 257 256 253 249 253 261 270 275 274 263 263 265 269 274 281 284 287 289 292 292 292 292 293 294 295 295 295 295 297 297 297
206 216 223 227 224 227 235 246 249 245 249 264 261 244 252 253 251 249 238 235 238 247 260 269 274 271 256 252 252 256 261 268 275 279 281 285 286 287 289 291 291 292 294 295 296 297 297 298 298
212 219 217 227 228 231 243 250 252 251 248 251 259 240 246 252 247 238 230 231 240 253 266 270 264 259 259 259 261 268 274 281 283 283 283 284 287 289 289 289 292 294 294 295 295 295 297 297 298
214 210 212 219 221 225 239 249 250 245 247 246 248 238 237 250 243 237 231 232 243 257 257 242 237 237 245 253 265 273 278 279 281 283 287 289 290 291 292 293 292 292 292 294 297 298 299 300 301
216 205 208 215 213 234 252 262 255 245 243 241 236 225 235 239 234 233 234 237 242 240 229 223 228 239 252 269 282 286 285 287 288 289 288 290 293 294 294 294 295 296 298 299 301 302 303 303 303
209 204 205 207 194 224 212 272 233 232 223 237 240 228 233 232 224 225 226 228 227 221 216 221 232 248 269 284 290 296 299 298 298 299 300 299 300 300 299 299 300 301 302 302 303 306 306 306 308
202 192 189 198 209 248 238 247 267 223 212 224 229 230 230 228 227 222 216 216 216 212 214 224 236 252 271 291 309 314 311 305 302 302 303 304 306 306 304 303 303 304 304 307 308 309 308 307 308
185 178 180 191 212 238 231 222 261 213 209 211 234 226 222 223 217 209 207 209 208 209 218 230 244 259 283 309 321 318 309 303 305 306 308 309 309 309 309 308 308 311 311 310 310 311 311 311 312
169 168 144 165 193 222 182 208 206 183 203 215 231 218 214 211 207 204 204 205 204 211 224 236 249 266 290 316 323 318 310 308 310 311 312 313 314 312 312 312 313 314 314 314 314 313 313 313 313
173 161 159 162 192 196 162 221 225 220 236 243 215 209 207 200 198 200 203 201 206 217 231 243 259 278 298 316 320 315 310 310 311 313 314 316 315 314 315 317 316 316 316 316 316 317 317 315 314
171 193 182 140 90 166 179 214 224 205 215 209 211 212 202 198 199 203 202 204 211 223 236 250 266 284 302 313 314 310 309 310 312 314 316 317 317 317 318 318 319 320 320 319 318 317 316 314 313
178 178 185 205 165 196 166 187 144 158 193 207 215 223 209 201 203 207 205 210 218 227 243 256 270 288 300 308 310 307 308 310 311 313 315 316 316 319 319 320 320 319 318 317 317 316 314 313 313
175 179 186 200 257 221 155 150 140 149 186 200 209 219 211 206 207 209 211 216 223 234 249 261 274 287 297 304 305 306 307 307 309 312 313 314 317 319 319 318 317 318 318 317 316 315 315 314 314
187 193 188 194 189 253 339 107 172 113 106 169 197 213 212 212 211 213 218 222 230 240 253 266 275 288 296 301 302 303 304 306 308 310 311 314 317 319 318 318 318 319 319 319 318 316 315 314 315
Height
3144 3144 3143 3143 3149 3145 3142 3142 3143 3144 3144 3141 3142 3143 3144 3144 3145 3146 3142 3141 3139 3137 3135 3133 3131 3129 3127 3125 3124 3122 3121 3120 3119 3119 3118 3119 3118 3118 3118 3118 3118 3119 3120 3121 3121 3121 3121 3121 3120
3143 3144 3143 3143 3145 3142 3140 3140 3142 3143 3141 3141 3141 3142 3143 3145 3142 3142 3142 3140 3139 3137 3135 3133 3131 3129 3127 3125 3123 3122 3121 3120 3120 3119 3119 3119 3118 3118 3118 3117 3117 3118 3117 3118 3119 3118 3119 3119 3118
3141 3143 3143 3144 3142 3141 3139 3138 3141 3140 3140 3141 3142 3141 3142 3143 3141 3140 3140 3139 3138 3136 3135 3133 3131 3130 3128 3125 3124 3122 3122 3121 3120 3120 3119 3118 3118 3118 3117 3117 3116 3116 3116 3116 3117 3117 3117 3117 3116
3139 3143 3142 3141 3139 3139 3139 3138 3137 3137 3140 3140 3140 3142 3141 3139 3139 3139 3138 3138 3137 3135 3134 3133 3132 3130 3128 3126 3125 3123 3122 3122 3121 3120 3119 3118 3118 3118 3117 3117 3117 3116 3115 3115 3115 3115 3115 3114 3114
3137 3140 3139 3138 3136 3137 3139 3137 3134 3136 3137 3138 3138 3141 3140 3137 3137 3137 3137 3137 3136 3135 3134 3133 3132 3131 3129 3127 3125 3123 3122 3121 3121 3120 3119 3118 3117 3117 3117 3117 3116 3115 3115 3114 3113 3113 3112 3112 3111
3135 3137 3138 3134 3134 3135 3136 3135 3133 3135 3137 3136 3137 3136 3137 3135 3135 3135 3135 3135 3135 3134 3133 3132 3131 3131 3129 3127 3125 3124 3122 3122 3121 3120 3119 3118 3117 3116 3116 3115 3114 3114 3113 3113 3112 3111 3109 3109 3109
3132 3135 3133 3132 3132 3134 3134 3131 3132 3133 3134 3138 3134 3136 3136 3132 3133 3133 3133 3133 3133 3133 3132 3131 3131 3130 3129 3127 3125 3124 3123 3122 3121 3120 3119 3118 3117 3116 3114 3113 3112 3111 3111 3110 3109 3108 3107 3106 3105
3129 3131 3129 3129 3130 3132 3130 3129 3129 3129 3131 3130 3132 3136 3136 3129 3130 3131 3131 3132 3132 3131 3131 3130 3129 3129 3128 3127 3125 3124 3122 3121 3121 3120 3118 3117 3116 3114 3113 3112 3111 3110 3109 3108 3107 3105 3104 3104 3104
3122 3125 3123 3125 3128 3129 3128 3127 3128 3126 3127 3128 3129 3129 3128 3128 3129 3129 3130 3130 3130 3130 3129 3129 3128 3127 3126 3126 3125 3124 3122 3120 3119 3118 3117 3116 3114 3113 3112 3111 3110 3109 3108 3106 3104 3104 3103 3102 3102
3116 3118 3119 3124 3126 3127 3126 3123 3125 3124 3124 3127 3127 3128 3126 3125 3126 3127 3128 3128 3128 3128 3128 3127 3126 3126 3125 3124 3123 3122 3121 3119 3117 3116 3114 3114 3113 3112 3111 3110 3109 3107 3106 3105 3103 3102 3101 3100 3098
3112 3111 3118 3120 3122 3122 3121 3119 3122 3120 3121 3123 3124 3123 3123 3121 3123 3124 3125 3125 3125 3125 3125 3125 3124 3124 3123 3122 3121 3120 3118 3116 3115 3113 3112 3112 3111 3110 3109 3107 3106 3105 3104 3103 3102 3100 3099 3097 3095
3107 3110 3113 3116 3117 3114 3115 3116 3115 3116 3117 3118 3116 3116 3117 3118 3120 3121 3122 3123 3123 3123 3123 3122 3122 3121 3121 3119 3119 3117 3116 3115 3113 3112 3111 3110 3109 3108 3107 3105 3104 3103 3102 3100 3099 3097 3095 3093 3091
3100 3106 3109 3110 3111 3109 3110 3110 3109 3109 3113 3114 3112 3112 3114 3114 3116 3117 3118 3120 3120 3120 3119 3119 3119 3119 3118 3117 3115 3114 3113 3112 3111 3110 3109 3108 3107 3106 3104 3103 3101 3100 3098 3096 3095 3093 3091 3089 3086
3095 3101 3102 3105 3106 3106 3105 3104 3105 3106 3110 3108 3108 3108 3109 3109 3111 3113 3114 3116 3116 3116 3116 3116 3116 3116 3115 3114 3113 3111 3110 3110 3109 3108 3107 3106 3105 3103 3102 3100 3098 3096 3094 3092 3090 3088 3085 3083 3081
3091 3096 3097 3098 3101 3102 3104 3098 3097 3102 3105 3103 3104 3104 3103 3104 3106 3108 3110 3111 3112 3111 3112 3112 3112 3112 3112 3111 3110 3109 3108 3108 3107 3106 3105 3103 3102 3100 3099 3097 3094 3092 3090 3088 3085 3082 3079 3077 3074
3086 3088 3087 3091 3096 3097 3099 3088 3097 3102 3100 3100 3100 3098 3098 3099 3100 3103 3105 3106 3107 3107 3107 3108 3108 3108 3108 3107 3106 3105 3104 3104 3103 3103 3102 3100 3098 3097 3095 3092 3090 3088 3085 3082 3080 3077 3074 3071 3067
3076 3076 3079 3086 3090 3092 3092 3087 3093 3095 3095 3096 3096 3097 3094 3094 3095 3097 3099 3100 3101 3102 3103 3103 3104 3104 3103 3103 3102 3101 3101 3101 3100 3099 3098 3096 3095 3093 3091 3089 3086 3083 3081 3078 3075 3072 3068 3065 3062
3063 3070 3075 3079 3084 3085 3086 3084 3088 3091 3092 3092 3092 3094 3092 3093 3093 3094 3094 3095 3098 3098 3099 3099 3099 3099 3099 3098 3098 3098 3097 3097 3096 3096 3095 3093 3091 3089 3087 3084 3082 3079 3076 3073 3069 3066 3063 3059 3054
3066 3068 3072 3075 3078 3081 3081 3081 3082 3085 3086 3087 3088 3090 3089 3089 3090 3091 3091 3093 3094 3094 3095 3095 3096 3096 3096 3096 3096 3096 3096 3095 3095 3094 3092 3089 3088 3086 3083 3081 3078 3074 3071 3067 3064 3059 3056 3052 3047
3059 3063 3067 3072 3074 3076 3078 3076 3077 3079 3079 3081 3084 3085 3084 3083 3086 3087 3088 3090 3090 3091 3091 3092 3093 3094 3094 3094 3094 3093 3093 3092 3091 3090 3088 3086 3084 3082 3079 3076 3073 3070 3066 3062 3057 3052 3048 3043 3039
3048 3056 3062 3067 3070 3072 3074 3070 3068 3070 3072 3075 3076 3080 3078 3079 3081 3083 3084 3086 3087 3087 3088 3090 3091 3092 3092 3092 3092 3091 3090 3089 3087 3086 3084 3082 3080 3078 3074 3071 3067 3063 3059 3054 3049 3044 3038 3032 3030
3046 3053 3059 3064 3067 3069 3070 3063 3060 3063 3065 3066 3069 3072 3072 3074 3076 3079 3081 3082 3083 3084 3087 3088 3089 3090 3090 3090 3090 3088 3087 3085 3083 3082 3080 3078 3075 3072 3069 3065 3060 3056 3051 3046 3041 3036 3030 3023 3018
3042 3051 3056 3061 3064 3065 3066 3067 3056 3059 3060 3062 3063 3065 3066 3068 3071 3075 3077 3078 3080 3082 3084 3086 3087 3087 3087 3087 3086 3085 3083 3081 3080 3078 3076 3073 3070 3067 3062 3057 3053 3048 3043 3037 3032 3027 3022 3017 3011
3039 3048 3055 3058 3061 3061 3059 3061 3053 3052 3056 3058 3057 3058 3059 3063 3066 3070 3073 3075 3077 3079 3082 3083 3084 3084 3084 3083 3082 3081 3080 3078 3076 3074 3071 3068 3064 3059 3055 3050 3045 3039 3034 3029 3024 3019 3014 3008 3003
3027 3039 3047 3055 3057 3051 3050 3055 3049 3049 3051 3052 3052 3052 3055 3058 3063 3067 3070 3072 3074 3077 3079 3080 3081 3081 3080 3080 3079 3078 3076 3074 3071 3069 3065 3062 3057 3052 3048 3043 3037 3031 3026 3021 3015 3011 3005 3000 2994
3022 3028 3034 3037 3041 3042 3050 3049 3046 3046 3048 3048 3050 3051 3053 3056 3061 3064 3067 3069 3071 3074 3076 3077 3077 3077 3077 3076 3075 3073 3071 3068 3066 3063 3059 3054 3050 3045 3040 3034 3028 3023 3017 3012 3006 3000 2995 2990 2985
3021 3028 3031 3032 3032 3033 3041 3043 3043 3044 3044 3045 3047 3048 3050 3054 3058 3061 3064 3066 3069 3071 3073 3074 3074 3073 3073 3071 3069 3067 3065 3062 3059 3055 3051 3047 3042 3036 3031 3025 3019 3013 3008 3003 2997 2993 2988 2982 2976
3017 3027 3032 3030 3032 3031 3033 3036 3037 3041 3042 3043 3044 3045 3048 3052 3055 3058 3061 3063 3066 3068 3069 3070 3070 3070 3068 3066 3064 3062 3059 3056 3052 3048 3044 3039 3034 3028 3022 3017 3011 3007 3002 2996 2990 2985 2979 2972 2966
3017 3021 3026 3028 3029 3023 3027 3032 3036 3039 3040 3040 3041 3042 3045 3048 3052 3056 3058 3060 3063 3065 3066 3067 3066 3065 3063 3061 3059 3056 3053 3050 3046 3041 3037 3031 3025 3020 3014 3009 3005 2999 2994 2988 2981 2975 2968 2961 2954
3016 3021 3025 3026 3031 3029 3028 3033 3035 3037 3038 3039 3039 3040 3043 3046 3050 3054 3056 3058 3061 3062 3063 3062 3062 3060 3058 3056 3053 3050 3047 3043 3038 3034 3029 3023 3018 3012 3007 3001 2996 2990 2984 2978 2971 2964 2958 2950 2942